Location: Mount Cross
(36.6390°N, 79.4878°W)
Time: 08:01:37
(UTC+00:00)

Vanguard 1 Rocket - Pass Details

Date: 03 April 2023
Orbit: 654 x 4221 km, 34.3° (Epoch: 01 June)

Event Time Altitude Azimuth Distance (km) Brightness Sun altitude
Rises 07:42:34 0° 286° (WNW) 7,726 11.9 -36.7°
Enters shadow 07:48:26 - 282° (WNW) 6,296 11.3 -35.8°
Reaches altitude 10° 07:48:47 10° 282° (WNW) 6,207 - -35.8°
Maximum altitude 08:04:31 44° 218° (SW) 2,644 - -33.4°
Exits shadow 08:10:24 23° 161° (SSE) 2,866 9.7 -32.5°
Drops below altitude 10° 08:12:58 10° 149° (SSE) 3,418 10.3 -32.0°
Sets 08:15:23 0° 142° (SE) 4,080 10.8 -31.7°
